This demonstration page uses our WeatherBlox Daily Observations layout. Learn more.

Left ArrowRight Arrow

Hourly Observations for April 7, 2021

Temp ( °F °C ) Dew Point ( °F °C ) Humidity (%) Winds ( mph kmh ) Pressure ( in mb ) Visibility ( mi km ) Precip ( " mm )
12:53 am 00:53 Cloudy 45 7.2 40 4.4 83 83 NNW 28 44 29.63 1004 10 16 0.00 0.00
1:35 am 01:35 Cloudy 44 6.7 39 3.9 83 83 NNW 29 46 29.70 1006 10 16 0.00 0.00
1:53 am 01:53 Cloudy 43 6.1 38 3.3 82 82 NNW 26 43 29.64 1004 10 16 0.00 0.00
2:53 am 02:53 Cloudy 43 6.1 38 3.3 82 82 NNW 26 43 29.64 1004 10 16 0.00 0.00
3:53 am 03:53 Cloudy 43 6.1 37 2.8 80 80 NNW 24 39 29.63 1004 10 16 0.00 0.00
4:53 am 04:53 Cloudy 42 5.6 37 2.8 82 82 NNW 23 37 29.66 1004 10 16 0.00 0.00
5:53 am 05:53 Cloudy 41 5 37 2.8 86 86 N 21 33 29.65 1004 10 16 0.00 0.00
6:35 am 06:35 Cloudy 41 5 37 2.8 86 86 N 18 30 29.72 1006 10 16 0.00 0.00
6:53 am 06:53 Cloudy 41 5 37 2.8 86 86 N 25 41 29.67 1005 10 16 0.00 0.00
7:53 am 07:53 Cloudy with Light Rain 41 5 37 2.8 86 86 NNW 30 48 29.66 1004 10 16 0.00 0.00
8:53 am 08:53 Cloudy 40 4.4 38 3.3 93 93 N 28 44 29.68 1005 10 16 0.00 0.00
9:14 am 09:14 Windy with Storms Likely 40 4.4 39 3.9 97 97 NNW 23 37 29.73 1007 9 14 0.01 0.25
9:42 am 09:42 Cloudy with Nearby Thunderstorms 40 4.4 38 3.3 93 93 NNW 26 43 29.74 1007 5 8 0.04 1.02
9:49 am 09:49 Cloudy with Light Rain 39 4 37 3 93 93 NNW 21 33 29.75 1008 6 10 0.00 0.00
9:53 am 09:53 Cloudy with Rain 40 4.4 38 3.3 93 93 NNW 25 41 29.71 1006 1 2 0.08 2.03
9:56 am 09:56 Cloudy with Heavy Rain 40 4.4 38 3.3 93 93 NNW 26 43 29.75 1007 1 1 0.04 1.02
10:06 am 10:06 Cloudy with Heavy Rain 40 4.4 38 3.3 93 93 NNW 22 35 29.75 1007 2 2 0.11 2.79
10:16 am 10:16 Cloudy with Rain 40 4.4 38 3.3 93 93 NNW 24 39 29.76 1008 3 4 0.13 3.30
10:23 am 10:23 Cloudy with Rain 40 4.4 38 3.3 93 93 NNW 26 43 29.76 1008 3 5 0.14 3.56
10:53 am 10:53 Cloudy with Light Rain 41 5 39 3.9 93 93 NNW 22 35 29.70 1006 7 11 0.17 4.32
11:01 am 11:01 Cloudy with Light Rain 41 5 39 3.9 93 93 NNW 24 39 29.74 1007 4 6 0.01 0.25
11:53 am 11:53 Cloudy with Light Rain 41 5 39 3.9 93 93 NNW 25 41 29.70 1006 4 6 0.03 0.76
12:53 pm 12:53 Cloudy 43 6.1 40 4.4 89 89 N 28 44 29.69 1005 10 16 0.01 0.25
1:53 pm 13:53 Cloudy 44 6.7 39 3.9 83 83 NNW 32 52 29.69 1005 10 16 0.00 0.00
2:53 pm 14:53 Cloudy 43 6.1 39 3.9 86 86 N 29 46 29.70 1006 10 16 0.00 0.00
3:53 pm 15:53 Cloudy with Light Rain 44 6.7 39 3.9 83 83 N 30 48 29.68 1005 10 16 0.00 0.00
4:53 pm 16:53 Cloudy 44 6.7 39 3.9 83 83 NNW 28 44 29.68 1005 10 16 0.00 0.00
5:53 pm 17:53 Cloudy 44 6.7 39 3.9 83 83 N 30 48 29.69 1006 10 16 0.00 0.00
6:37 pm 18:37 Cloudy with Heavy Rain 43 6.1 40 4.4 89 89 NNW 28 44 29.72 1006 2 3 0.07 1.78
6:53 pm 18:53 Cloudy with Light Rain 43 6.1 39 3.9 86 86 N 28 44 29.71 1006 4 6 0.09 2.29
7:53 pm 19:53 Cloudy with Light Rain 43 6.1 39 3.9 86 86 NNW 26 43 29.71 1006 10 16 0.00 0.00
8:53 pm 20:53 Cloudy 43 6.1 38 3.3 82 82 NNW 28 44 29.72 1006 10 16 0.00 0.00
9:53 pm 21:53 Cloudy 44 6.7 38 3.3 79 79 NNW 26 43 29.73 1007 10 16 0.00 0.00
11:37 pm 23:37 Cloudy 43 6.1 39 3.9 86 86 NNW 18 30 29.74 1007 10 16 0.00 0.00
11:53 pm 23:53 Cloudy 43 6.1 39 3.9 86 86 NNW 22 35 29.71 1006 10 16 0.00 0.00

Powered by AerisWeather